Location: Unspecified
(0.0000°N, 0.0000°E)
Time: 12:24:36
(UTC+00:00)

SICH 2 - Pass Details

Date: 12 June 2023
Orbit: 674 x 694 km, 97.8° (Epoch: 22 September)

Event Time Altitude Azimuth Distance (km) Brightness Sun altitude
Rises 18:27:57 0° 156° (SSE) 3,043 ? -6.4°
Reaches altitude 10° 18:30:19 10° 148° (SSE) 2,122 ? -7.0°
Maximum altitude 18:34:40 41° 79° (ENE) 984 ? -8.0°
Drops below altitude 10° 18:38:59 10° 9° (N) 2,102 ? -9.0°
Sets 18:41:18 0° 2° (N) 3,011 ? -9.5°
